Weather in Sunny Isles Beach

United States     25°56′01″N   80°07′18″W
temp.,
°C
wind,
m/s
gust,
m/s
humid.,
%
clouds,
%
prec.,
mm/h
press.,
hPa
HPBL,
m
16 september, thu
thu1623:00+28s22713 0.0 1014494
02:00+28s337157 0.0 1014612
05:00+28s227360 0.0 1013614
08:00+28s33703 0.0 1014737
11:00+28sse447516 1.7 1016465
14:00+28sse66685 3.5 1015558
17:00+28s55695 0.1 1015549
20:00+29ssw336799 0.3 1016474
17 september, fri
fri1723:00+29wsw226615 0.1 1018557
02:00+29ssw226515 0.1 1017602
05:00+28s226793 0.0 1016664
08:00+28sse44708 0.0 1018859
11:00+29sse447056 0.0 1019898
14:00+29se457152 0.3 1019699
17:00+29sse5573100 0.5 1017719
20:00+29sse447393 2.2 1018446
18 september, sat
sat1823:00+29sse4473100 1.3 1019348
02:00+29sw2268100 2.9 1018674
05:00+28nw217296 0.1 1017371
08:00+28ene1270100 0.1 1018406
11:00+28ese2371100 0.0 1018600
14:00+29ese4371100 0.0 1017611
17:00+29se4473100 0.0 1016625
20:00+28se557598 1.5 1016473
19 september, sun
sun1923:00+28se347493 4.5 1017298
02:00+29se2269100 6.6 1017466
05:00+29ese227093 0.0 1016600
08:00+28ese337199 0.0 1017676
11:00+29e447139 0.0 1018814
14:00+29e447131 0.0 1017843
17:00+29e557128 0.0 1015904
20:00+29e55695 0.0 1016786
20 september, mon
mon2023:00+29e55692 0.0 1017854
02:00+29e45723 0.0 1016840
05:00+28e447616 0.1 1015752
08:00+28e55767 1.2 1017827
11:00+28e55755 0.7 1018778
14:00+29ene55725 1.2 1017898
17:00+29ene55716 0.1 1015868
20:00+29ene56725 0.1 1016922